AirNav   Everest Fuels
 
 781 users online  

0F9 Tishomingo Airpark
Tishomingo, Oklahoma, USA

GOING TO TISHOMINGO?


FAA INFORMATION EFFECTIVE 28 MARCH 2019

Location

FAA Identifier: 0F9
Lat/Long: 34-11-54.6000N / 096-40-28.2000W
34-11.910000N / 096-40.470000W
34.1985000 / -96.6745000
(estimated)
Elevation: 647 ft. / 197 m (estimated)
Variation: 06E (1985)
From city: 2 miles S of TISHOMINGO, OK
Time zone: UTC -5 (UTC -6 during Standard Time)
Zip code: 73460

Airport Operations

Airport use: Open to the public
Activation date: 10/1950
Control tower: no
ARTCC: FORT WORTH CENTER
FSS: MC ALESTER FLIGHT SERVICE STATION
NOTAMs facility: MLC (NOTAM-D service available)
Attendance: UNATNDD
Wind indicator: yes
Segmented circle: no
Beacon: white-green (lighted land airport)
ROTG BCN OTS INDEFLY. Operates sunset to sunrise.

Airport Communications

CTAF: 122.9
WX AWOS-3 at ADM (18 nm W): 125.6 (580-389-5078)

Nearby radio navigation aids

VOR radial/distance  VOR name  Freq  Var
URHr312/20.7TEXOMA VOR/DME114.3005E
ADMr086/24.5ARDMORE VORTAC116.7006E
ADHr174/36.2ADA VOR/DME117.8006E

 
NDB name  Hdg/Dist  Freq  Var  ID
ADDMO093/13.040006EAI .- ..
DENISON353/22.334106EDNI -.. -. ..

Airport Services

Airframe service: NONE
Powerplant service: NONE
Bottled oxygen: NONE
Bulk oxygen: NONE

Runway Information

Runway 17/35

Dimensions: 3100 x 60 ft. / 945 x 18 m
Surface: asphalt, in good condition
Weight bearing capacity: 
Single wheel: 12.0
RUNWAY 17  RUNWAY 35
Latitude: 34-12.164500N34-11.653667N
Longitude: 096-40.469500W096-40.470000W
Elevation: 644.0 ft.638.0 ft.
Gradient: 0.2%0.2%
Traffic pattern: leftleft
Markings: basic, in good conditionbasic, in good condition
Obstructions: 61 ft. trees, 1103 ft. from runway, 14:1 slope to clear51 ft. trees, 422 ft. from runway, 160 ft. left of centerline, 4:1 slope to clear

Airport Ownership and Management from official FAA records

Ownership: Publicly-owned
Owner: CITY OF TISHOMINGO
1130 E MAIN
TISHOMINGO, OK 73460
Phone 580-371-2369
Manager: MARLON SULLIVAN
202 S. CAPITOL
TISHOMINGO, OK 73460
Phone (580) 371-8605
PUBLIC WORKS DIRECTOR

Airport Operational Statistics

Aircraft operations: avg 23/week *
83% transient general aviation
17% local general aviation
* for 12-month period ending 01 August 2018

Instrument Procedures

There are no published instrument procedures at 0F9.

Some nearby airports with instrument procedures:

1F4 - Madill Municipal Airport (8 nm SW)
KADM - Ardmore Municipal Airport (18 nm W)
KDUA - Durant Regional Airport - Eaker Field (21 nm SE)
1F0 - Ardmore Downtown Executive Airport (22 nm W)
KGYI - North Texas Regional Airport/Perrin Field (29 nm S)
 
Loc | Ops | Rwys | IFR | FBO | Links
Com | Nav | Svcs | Stats | Notes
Area around 0F9 (Tishomingo Airpark)
 
Road maps at: MapQuest Bing Google
 
Aerial photo
WARNING: Photo may not be current or correct
Aerial photo of 0F9 (Tishomingo Airpark)
Photo by Robert Allen
Photo taken 14-Sep-2006

Do you have a better or more recent aerial photo of Tishomingo Airpark that you would like to share? If so, please send us your photo.

 
Sectional chart

 
Airport distance calculator
Flying to Tishomingo Airpark? Find the distance to fly.

From to 0F9

Sunrise and sunset
Times for 20-Apr-2019
 Local
(UTC-5)
 Zulu
(UTC)
Morning civil twilight06:2411:24
Sunrise06:5011:50
Sunset20:0101:01
Evening civil twilight20:2701:27

Current date and time
Zulu (UTC)  21-Apr-2019 01:55:44
Local (UTC-5)  20-Apr-2019 20:55:44
 
METAR
KADM 
18nm W 
210135Z AUTO 13004KT 10SM CLR 20/11 A2989 RMK AO2 T02000111
KDUA 
20nm SE 
210135Z AUTO 16006KT CLR 16/10 A2993 RMK AO2 PWINO
K1F0 
22nm W 
210135Z AUTO 14003KT 10SM CLR 18/10 A2989 RMK AO2
KAQR 
29nm NE 
210135Z AUTO 00000KT 10SM CLR 18/09 A2992 RMK AO2
KGYI 
29nm S 
210135Z AUTO 15010KT 7SM CLR 20/10 A2992 RMK AO2 T01950099
TAF
NOTAMs
Click for the latest NOTAMs
NOTAMs are issued by the DoD/FAA and will open in a separate window not controlled by AirNav.

 

 
 

Would you like to see your business listed on this page?

 If your business provides an interesting product or service to pilots, flight crews, aircraft, or users of the Tishomingo Airpark, you should consider listing it here.  To start the listing process, click on the button below
 
Add a business
 

Other Pages about Tishomingo Airpark

Update a link
 
Copyright © AirNav, LLC. All rights reserved. Privacy Policy  Contact